Location: Rounton
(54.4000°N, 1.3500°W)
Time: 21:28:10
(UTC+01:00)

YAOGAN 20A - Pass Details

Date: 07 July 2022
Orbit: 891 x 1288 km, 63.4° (Epoch: 18 August)

Event Time Altitude Azimuth Distance (km) Brightness Sun altitude
Rises 01:21:12 0° 311° (NW) 3,867 8.6 -13.0°
Reaches altitude 10° 01:23:59 10° 303° (WNW) 2,968 7.8 -12.9°
Maximum altitude 01:30:16 35° 241° (WSW) 1,797 6.0 -12.9°
Enters shadow 01:35:23 17° 186° (S) 2,701 6.5 -12.8°
